Simultaneous Nadir Overpasses (SNOs) Predictions

Prediction of SNOs between AQUA and TERRA Satellite Orbit:

Table of predicted SNOs for the next 14.0 days since TLE Epoch: 2/9/2016
Index Date (AQUA) Time (AQUA) Lat,Lon (AQUA) SZA (AQUA ) Date (TERRA) Time (TERRA) Lat,Lon (TERRA) SZA (TERRA ) Distance(km) Time Diff (sec)
1 02/09/2016 21:12:28 -78.72, 19.68 85.62 02/09/2016 21:12:28 -78.72, 19.68 85.62 0.00 0
2 02/09/2016 22:02:22 79.77,-179.46 95.89 02/09/2016 22:02:22 79.77,-179.46 95.89 0.00 0
3 02/09/2016 22:50:25 -76.19, 5.52 88.80 02/09/2016 22:50:25 -76.19, 5.52 88.80 0.00 0
4 02/09/2016 23:45:08 78.64, 73.28 108.97 02/09/2016 23:45:08 78.64, 73.28 108.97 0.00 0
5 02/10/2016 00:22:45 -54.31, 6.68 110.85 02/10/2016 00:22:45 -54.31, 6.68 110.85 0.00 0
6 02/10/2016 01:17:26 72.11, 158.12 86.69 02/10/2016 01:17:26 72.11, 158.12 86.69 0.00 0
7 02/10/2016 02:10:17 -81.08, -74.90 81.76 02/10/2016 02:10:17 -81.08, -74.90 81.76 0.00 0
8 02/10/2016 03:06:47 66.59, -3.39 121.84 02/10/2016 03:06:47 66.59, -3.39 121.84 0.00 0
9 02/10/2016 03:40:13 -53.25, -42.24 111.90 02/10/2016 03:40:13 -53.25, -42.24 111.90 0.00 0
10 02/10/2016 04:29:18 51.83, 126.05 66.75 02/10/2016 04:29:18 51.83, 126.05 66.75 0.00 0
11 02/10/2016 05:40:49 -46.77, 127.50 40.27 02/10/2016 05:40:49 -46.77, 127.50 40.27 0.00 0
12 02/10/2016 06:19:30 81.04, -5.27 104.95 02/10/2016 06:19:30 81.04, -5.27 104.95 0.00 0
13 02/10/2016 06:58:06 -53.66, -91.88 111.56 02/10/2016 06:58:06 -53.66, -91.88 111.56 0.00 0
14 02/10/2016 07:55:19 78.96, 37.67 94.56 02/10/2016 07:55:19 78.96, 37.67 94.56 0.00 0
15 02/10/2016 08:46:51 -81.82, 161.22 78.38 02/10/2016 08:46:51 -81.82, 161.22 78.38 0.00 0
16 02/10/2016 09:35:12 80.98, -4.73 97.92 02/10/2016 09:35:12 80.98, -4.73 97.92 0.00 0
17 02/10/2016 10:24:22 -80.53, 168.35 83.00 02/10/2016 10:24:22 -80.53, 168.35 83.00 0.00 0
18 02/10/2016 11:10:51 72.47, 9.13 86.94 02/10/2016 11:10:51 72.47, 9.13 86.94 0.00 0
19 02/10/2016 11:59:26 -69.75,-178.88 95.90 02/10/2016 11:59:26 -69.75,-178.88 95.90 0.00 0
20 02/10/2016 12:46:24 61.25, -2.87 75.64 02/10/2016 12:46:24
